Regional Weather Roundup
Issued by NWS Sterling, VA

Home | Current Version | Previous Version | Text Only | Print | Product List | Glossary Off
Versions: 1 2 3 4 5 6 7 8 9 10 11 12 13 14 15 16 17 18 19 20 21 22 23 24 25 26 27 28 29 30 31 32 33 34 35 36 37 38 39 40 41 42 43 44 45 46 47 48 49 50

000
ASUS41 KLWX 210410
RWRLWX

REGIONAL WEATHER ROUNDUP
NATIONAL WEATHER SERVICE BALTIMORE MD/WASHINGTON DC
1200 AM EDT TUE OCT 21 2014

Note: "FAIR" indicates few or no clouds below 12,000 feet
with no significant weather and/or obstructions to visibility.
 TC=TEMPERATURE CELSIUS

 * =Non NWS site. Station does not report precipitation (e.g. rain,
    snow, etc.), thunder, or fog.

DCZ001-MDZ009-015-VAZ040>042-051-053>054-210500-
WASHINGTON METRO

CITY           SKY/WX    TMP DP  RH WIND       PRES   REMARKS
WASHINGTON NAT LGT RAIN  58  49  72 S6        29.95F
DULLES         LGT RAIN  55  49  80 S7        29.93F
ANDREWS AFB    CLOUDY    56  45  68 S5        29.94F
FT BELVOIR     CLOUDY    54  52  94 SE3       29.94F
QUANTICO       CLOUDY    58  47  66 SW8       29.95F
COLLEGE PARK*  CLOUDY    55  50  82 CALM      29.94F
LEESBURG*      LGT RAIN  55  54  94 S6        29.93F
MANASSAS*      CLOUDY    55  54  94 CALM      29.93F
GAITHERSBURG*  CLOUDY    57  46  67 S7        29.96F

$$

MDZ006>007-011-014-210500-
BALTIMORE METRO

CITY           SKY/WX    TMP DP  RH WIND       PRES   REMARKS
BWI AIRPORT    CLOUDY    57  44  62 S8        29.92F
MD SCIENCE CTR   N/A     59  44  57 MISG      29.94F
MARTIN STATE   CLOUDY    59  48  67 CALM      29.96F
ANNAPOLIS      MOCLDY    59  43  55 S5        29.94F
FORT MEADE*    CLOUDY    50  46  87 S9        29.96F

$$

MDZ012-015-019>023-210500-
MARYLAND EASTERN SHORE

CITY           SKY/WX    TMP DP  RH WIND       PRES   REMARKS
OCEAN CITY     MOCLDY    50  46  86 CALM      29.97F
SALISBURY      CLOUDY    52  46  80 CALM      29.97F
CAMBRIDGE*     CLOUDY    54  46  76 SE3       29.96F
EASTON*        CLOUDY    54  50  86 CALM      29.99F

$$

MDZ017>025-210500-
SOUTHERN MARYLAND

CITY           SKY/WX    TMP DP  RH WIND       PRES   REMARKS
PATUXENT RIVER PTCLDY    57  46  66 SW5       29.95F
ST INIGOES     MOCLDY    59  46  62 SE3       29.95F
LEONARDTOWN*   MOCLDY    54  43  66 CALM      29.97F

$$

MDZ003>005-210500-
NORTH CENTRAL MARYLAND

CITY           SKY/WX    TMP DP  RH WIND       PRES   REMARKS
FREDERICK*     DRIZZLE   57  52  82 CALM      29.95F
HAGERSTOWN APT CLOUDY    54  49  83 E6        29.90F
WESTMINSTER*   LGT RAIN  54  50  87 S6        29.92F

$$

MDZ501>502-210500-
WESTERN MARYLAND

CITY           SKY/WX    TMP DP  RH WIND       PRES   REMARKS
OAKLAND*       CLOUDY    46  45  93 SW7       29.91S
CUMBERLAND*    MOCLDY    50  45  81 CALM      29.95F

$$

VAZ025>031-210500-
SHENANDOAH VALLEY

CITY           SKY/WX    TMP DP  RH WIND       PRES   REMARKS
WINCHESTER*    CLOUDY    52  46  82 CALM      29.92F
FRONT ROYAL*   MOCLDY    50  46  87 S3        29.91F
LURAY*         MOCLDY    54  52  94 CALM      29.92F
NEW MARKET*    MOCLDY    52  50  92 CALM      29.92F
STAUNTON*      CLOUDY    55  48  75 S5        29.95F
WAYNESBORO*    FAIR      52  47  84 CALM      29.94F

$$

WVZ021-048>050-054>055-210500-
EASTERN WEST VIRGINIA PANHANDLE

CITY           SKY/WX    TMP DP  RH WIND       PRES   REMARKS
MARTINSBURG    CLOUDY    52  48  86 CALM      29.91F
PETERSBURG*    CLOUDY   N/A N/A N/A CALM      29.92F

$$

VAZ036>039-050-210500-
CENTRAL FOOTHILLS

CITY           SKY/WX    TMP DP  RH WIND       PRES   REMARKS
CHARLOTTESVILL CLOUDY    56  49  77 S5        29.93F
CULPEPER*      CLOUDY    55  50  82 CALM      29.93F
ORANGE*        CLOUDY    57  48  72 SE5       29.94F
GORDONSVILLE*  CLOUDY    53  51  94 CALM      29.93F
WARRENTON*     CLOUDY    56  53  90 CALM      29.92F

$$

VAZ055>057-210500-
NORTH AND CENTRAL PIEDMONT

CITY           SKY/WX    TMP DP  RH WIND       PRES   REMARKS
FREDERICKSBRG* CLOUDY    56  50  81 SE3       29.93F
STAFFORD*      CLOUDY    53  53 100 CALM      29.98F

$$

NCZ024-NYZ072-PAZ021-071-VAZ022-071-210500-
OTHER REGIONAL OBSERVATIONS

CITY           SKY/WX    TMP DP  RH WIND       PRES   REMARKS
NEW YORK CITY  CLOUDY    58  43  57 VRB3G17   29.99F
PHILADELPHIA   CLOUDY    57  44  62 S6        29.96F
PITTSBURGH     CLOUDY    51  46  83 SW7       29.86F
ROANOKE        MOCLDY    55  42  61 CALM      29.97F
RICHMOND       CLOUDY    57  46  66 S3        29.96F
RALEIGH        LGT RAIN  55  49  80 CALM      29.98F

$$

ANZ530>537-210500-
MARINE OBSERVATIONS

STATION/POSITION TIME  TEMP    WIND        PRES
                       AIR SEA DIR/SP/G
                 (UTC) (F)     (DEG/KT/KT) (MB)
THOMAS PT LIGHT  0400   62 64  210/ 14/ 15 1014.9F
BALT KEY BRIDGE  0400   60     230/  6/  6 1013.6S
COVE POINT       0400   59     210/  8/  9 1014.1F
LEWISETTA        0400   58 62  200/  6/  7 1014.0F
SOLOMONS ISLAND  0400      66                N/A
PINEY POINT      0400          190/  7/  9   N/A

$$



USA.gov is the U.S. government's official web portal to all federal, state and local government web resources and services.